Location: Wildcat Hills Observatory
(41.6350°N, 103.6812°W)
Time: 08:06:02
(UTC-07:00)

Daily predictions for brighter satellites

Satellite Brightness Start Highest point End
(mag) Time Altitude Azimuth Time Altitude Azimuth Time Altitude Azimuth
Cosmos 2026 Rocket 4.1 16:45:53 10° N 16:52:18 87° E 16:58:36 10° S
Cosmos 1655 Rocket 4.1 16:48:45 10° N 16:55:08 67° E 17:01:29 10° SSE
BREEZE-M DEB (TANK) 4.2 16:54:35 10° NW 16:56:50 26° NNE 17:00:46 10° E
CENTAUR R/B 4.2 16:51:35 10° NNW 16:57:13 22° NNE 17:03:13 10° ENE
ERS-2 4.0 16:56:36 10° E 16:57:47 11° ENE 16:58:59 10° NE
CZ-2C R/B 3.2 16:53:16 10° S 16:58:24 64° WSW 17:03:32 10° NNW
Cosmos 2227 Rocket 2.4 16:53:38 10° NNW 16:59:06 47° ENE 17:04:31 10° SE
Cosmos 1455 Rocket 3.3 16:55:33 10° N 16:59:49 45° ENE 17:04:01 10° SSE
USA 161 2.7 17:00:24 10° N 17:03:13 45° WNW 17:06:07 10° SSW
Cosmos 1544 Rocket 3.6 16:59:49 10° N 17:04:07 55° E 17:08:21 10° SSE
CORIOLIS 4.4 16:59:28 10° SE 17:04:40 49° ENE 17:09:51 10° N
Cosmos 1271 Rocket 2.7 17:01:39 10° N 17:05:27 62° E 17:09:16 10° SSE
Cosmos 2219 3.9 17:00:30 10° NNW 17:06:02 60° WSW 17:11:32 10° S
Ariane Rocket 3.0 17:04:22 10° SSE 17:09:21 64° ENE 17:14:21 10° N
YAOGAN 1 3.3 17:06:35 10° SE 17:10:22 31° ENE 17:14:12 10° N
USA 116 4.2 17:07:59 10° NE 17:10:42 26° E 17:13:21 10° SSE
Meteor 2-9 Rocket 4.4 17:07:03 10° N 17:12:22 46° ENE 17:17:30 10° SSE
AQUARIUS 4.1 17:11:30 10° SSE 17:15:57 68° ENE 17:20:26 10° N
Cosmos 1980 Rocket 3.7 17:13:25 10° SE 17:16:53 17° E 17:19:35 12° ENE
Cosmos 1269 Rocket 4.5 17:14:22 10° N 17:19:20 38° ENE 17:24:15 10° SE
Cosmos 389 Rocket 3.2 17:17:26 10° NNW 17:20:51 56° W 17:24:13 10° S
Cosmos 1125 Rocket 3.7 17:16:18 10° S 17:21:26 53° ESE 17:26:36 10° NNE
Cosmos 1484 Rocket 2.9 17:18:58 10° SSE 17:22:59 87° W 17:27:02 10° NNW
Cosmos 1666 2.7 17:20:37 10° N 17:24:22 82° W 17:28:05 10° S
Cosmos 2297 Rocket 2.2 17:20:07 10° NNW 17:25:46 65° ENE 17:31:22 10° SE
COSMO-SKYMED 1 3.4 17:22:19 10° NNE 17:26:12 31° E 17:30:02 10° SSE
USA 238 DEB 3.8 17:19:05 10° NW 17:26:15 86° NE 17:33:27 10° SE
USA 238 3.8 17:19:11 10° NW 17:26:21 85° NE 17:33:33 10° SE
Atlas Centaur 2 4.1 17:22:35 10° WSW 17:26:46 20° SSW 17:30:20 10° SSE
CZ-2C R/B 3.9 17:23:57 10° NNE 17:28:36 58° E 17:33:16 10° S
Cosmos 1048 Rocket 4.1 17:24:28 10° NNW 17:29:48 58° ENE 17:35:05 10° SSE
SJ 16-02 1.4 17:26:12 10° S 17:30:30 60° ESE 17:34:52 10° NNE
Cosmos 1656 3.7 17:25:38 10° S 17:31:06 59° ESE 17:36:31 10° NNE
IRS-1A Rocket 4.2 17:28:24 10° SSE 17:33:55 67° ENE 17:39:24 10° N
Cosmos 372 Rocket 3.9 17:32:30 10° S 17:37:40 72° ESE 17:42:50 10° NNE
SMAP 3.6 17:36:39 10° S 17:41:14 64° W 17:45:53 10° NNW
NOAA 15 4.5 17:36:32 10° SSE 17:41:46 78° ENE 17:47:01 10° N
MTI 4.1 17:40:58 19° NNE 17:42:59 45° E 17:46:06 10° S
Cosmos 724 4.2 17:38:51 10° NNW 17:44:40 81° ENE 17:50:30 10° SE
RESURS DK-1 4.3 17:42:52 10° SE 17:44:18 14° ESE 17:44:18 14° ESE
Meteor 2-4 Rocket 3.7 17:44:19 10° S 17:49:45 83° W 17:55:09 10° N
Okean 1-7 Rocket 4.3 17:49:19 10° SSE 17:53:12 32° E 17:54:16 28° ENE
Cosmos 1025 Rocket 3.3 17:50:39 10° SSE 17:54:43 43° E 17:56:56 23° NE
NOAA 12 4.2 17:49:45 10° SE 17:54:48 49° ENE 17:59:52 10° N
NOSS 3-2 (A) 4.0 17:47:28 10° NNW 17:55:03 79° NE 18:03:17 10° SE
ALOS 2.4 17:50:57 10° SSE 17:55:26 51° ENE 17:59:58 10° N
SKYMED 3 4.5 17:52:14 11° NNE 17:56:22 67° ESE 18:00:41 10° S
DELTA 2 R/B (1) 3.7 17:51:43 10° W 17:57:16 71° S 18:00:47 23° ESE
Meteor 1-28 Rocket 4.4 17:56:20 10° N 17:59:53 41° WNW 18:03:27 10° SW
Cosmos 2369 4.0 17:55:22 10° SSW 18:01:01 70° WNW 18:06:28 11° NNE
Cosmos 1536 Rocket 4.2 17:56:58 10° SSW 18:01:14 55° W 18:05:30 10° N
Cosmos 2278 3.9 17:55:54 10° SSW 18:01:34 73° WNW 18:06:54 12° NNE
Cosmos 2263 Rocket 4.2 17:58:57 10° NNE 17:59:25 11° NNE 17:59:25 11° NNE
CZ-4 R/B 2.4 17:57:59 10° S 18:01:42 45° W 18:05:31 10° NNW
NOSS 3-2 (C) 4.0 17:55:12 10° NNW 18:02:44 70° NE 18:10:56 10° SE
FENGYUN 3A 3.6 17:59:04 10° SSE 18:04:22 62° ENE 18:09:39 10° N
METEOR-M 4.2 18:00:10 10° S 18:05:30 80° WSW 18:10:53 10° NNW
Cosmos 2084 3.4 18:04:32 10° SSW 18:08:37 54° ESE 18:09:21 46° E
ATLAS 3B R/B 3.4 18:02:29 10° NW 18:08:53 52° WSW 18:15:07 10° S
ATLAS 2AS CENTAUR R/B 4.0 18:01:55 10° WSW 18:09:17 42° NW 18:16:35 11° NNE
EO 1 Del DPAF 3.1 18:08:52 29° NNE 18:10:42 79° ESE 18:14:30 10° S
Cosmos 1241 Rocket 4.4 18:04:45 10° SSW 18:11:07 81° ESE 18:15:08 24° NE
Cosmos 1515 3.5 18:09:22 10° S 18:13:09 88° E 18:14:56 30° N
SKYMED 2 3.6 18:10:25 13° N 18:14:22 77° WNW 18:18:41 10° SSW
Meteor 1-15 Rocket 4.3 18:11:07 10° N 18:17:05 85° W 18:22:58 10° S
USA 215 4.3 18:11:42 10° SSE 18:17:56 46° SW 18:24:11 10° WNW
DNEPR-1 R/B 4.3 18:13:45 10° NNW 18:18:43 51° NE 18:20:49 35° ESE
Cosmos 1697 Rocket 2.7 18:13:31 10° SSW 18:19:10 85° WNW 18:22:51 23° NNE
Abrixas rocket 4.0 18:17:50 10° NW 18:19:51 22° NNW 18:19:51 22° NNW
Nadezhda 2 Rocket 4.4 18:14:14 10° N 18:20:36 84° E 18:27:00 10° S
Okean 2 3.3 18:18:29 10° S 18:22:35 87° W 18:24:16 35° N
PSLV R/B 3.6 18:20:41 10° W 18:23:20 59° WSW 18:23:20 59° WSW
DMSP B5D1-3 4.4 18:21:04 23° NNE 18:24:17 76° ESE 18:29:23 10° S
ISS -0.6 18:25:49 10° W 18:27:25 13° SW 18:29:01 10° SSW
BREEZE-M DEB (TANK) 4.1 18:26:01 10° NW 18:28:46 34° NNE 18:28:46 34° NNE
NOSS 3-4 (A) 3.4 18:23:56 10° SW 18:30:10 84° NW 18:33:16 33° NNE
NOSS 3-4 (C) 3.4 18:24:02 10° SW 18:30:15 85° NW 18:33:20 33° NNE
ERS-2 2.9 18:27:25 10° S 18:31:00 51° W 18:34:36 10° NNW
Gbstr 26 Del rocket 4.4 18:30:28 10° WSW 18:38:29 72° NNW 18:41:19 40° NE
SPOT 3 Rocket 4.0 18:35:00 10° S 18:40:07 61° WSW 18:45:15 10° NNW
Cosmos 2227 Rocket 4.4 18:38:18 10° NW 18:42:49 25° WSW 18:47:18 10° SSW
FengYun 1-2 T 4.1 18:38:59 10° SSE 18:44:34 74° ENE 18:50:14 10° N
CENTAUR R/B 3.1 18:41:43 10° NNW 18:49:32 63° NE 18:51:51 47° ESE
Thor Agena Rocket 4.1 18:52:57 46° SSE 18:52:57 46° SSE 18:56:46 10° S
Cosmos 2251 Rocket 3.9 18:50:15 10° NNW 18:54:11 51° N 18:54:11 51° N
Cosmos 494 Rocket 4.3 18:53:44 10° NNW 18:58:57 64° WSW 19:04:07 10° S
Cosmos 1980 Rocket 2.4 18:54:35 10° SSW 19:00:14 68° WNW 19:01:25 53° N
Cosmos 1066 Rocket 4.1 18:55:40 10° SSW 19:01:13 81° W 19:01:39 74° NNW
S3M 3.8 18:55:27 10° S 19:01:34 82° E 19:01:51 79° NE
SJ 16-02 4.1 19:07:13 10° W 19:09:31 14° WNW 19:11:52 10° NNW
SL-16 R/B 4.2 19:35:54 10° SSW 19:37:22 19° SSW 19:37:22 19° SSW
Cosmos 2322 Rocket 4.4 19:41:00 10° SSW 19:42:07 16° SSW 19:42:07 16° SSW
Cosmos 2344 4.2 19:45:40 10° SSW 19:50:39 46° SSW 19:50:39 46° SSW
CENTAUR R/B 4.4 20:32:56 10° NW 20:39:08 34° W 20:39:08 34° W
